Station 46006 (LLNR 510) - SOUTHEAST PAPA - 600NM West of Eureka, CA Image indicating link to RSS feed of recent meteorological observations for station 46006


Conditions at 46006 as of
(3:00 pm PDT)
2200 GMT on 04/17/2024:
     

Click on the graph icon in the table below to see a time series plot of the last five days of that observation.

5-day plot - Wind Direction Wind Direction (WDIR):SSE ( 150 deg true )
5-day plot - Wind Speed Wind Speed (WSPD): 15.5 kts
5-day plot - Wind Gust Wind Gust (GST): 21.4 kts
5-day plot - Atmospheric Pressure Atmospheric Pressure (PRES):30.28 in
5-day plot - Pressure Tendency Pressure Tendency (PTDY):-0.01 in ( Falling )
5-day plot - Air Temperature Air Temperature (ATMP): 54.0 °F
5-day plot - Water Temperature Water Temperature (WTMP): 53.6 °F
5-day plot - Dew Point Dew Point (DEWP): 49.3 °F
5-day plot - Wind Speed at 10 Meters Wind Speed at 10 meters (WSPD10M): 17.5 kts
5-day plot - Wind Speed at 20 Meters Wind Speed at 20 meters (WSPD20M): 19.4 kts
5-day plot -  Wind Speed, Wind Gust and Atmospheric Pressure Combined plot of Wind Speed, Gust, and Air Pressure
Supplemental Measurements
Highest 1-minute Wind Speed
Time (PDT)5-day plot - 1-Minute Wind Speed WSPD 5-day plot - 1-Minute Wind Direction WDIR
2:53 pm 17.5 kts-
Previous observations
TIME
(PDT)
5-day plot - Wind Direction
WDIR
 
5-day plot - Wind Speed
WSPD
kts
5-day plot - Wind Gust
GST
kts
5-day plot - Wave Height
WVHT
ft
5-day plot - Dominant Wave Period
DPD
sec
5-day plot - Average Wave Period
APD
sec
5-day plot - Mean Wave Direction
MWD
 
5-day plot - Atmospheric Pressure
PRES
in
5-day plot - Pressure Tendency
PTDY
in
5-day plot - Air Temperature
ATMP
°F
5-day plot - Water Temperature
WTMP
°F
5-day plot - Dew Point
DEWP
°F
5-day plot - Salinity
SAL
psu
5-day plot - Visibility
VIS
nmi
5-day plot - Tide (above MLLW)
TIDE
ft
2024-04-17 02:50 pmSSE 15.5 19.4 6.6 65.6SSE30.28- 54.0 53.6 49.5---
2024-04-17 02:40 pmSSE 15.5 19.4 6.6-5.6SSE30.28- 54.0 53.8 49.5---
2024-04-17 02:30 pmSSE 17.5 21.4----30.28- 53.8 53.6 49.3---
2024-04-17 02:20 pmSSE 15.5 19.4 6.6 65.5 S30.28- 53.8 53.6 49.6---
2024-04-17 02:10 pmSSE 17.5 21.4 6.6-5.5 S30.28- 53.8 53.6 49.6---
2024-04-17 02:00 pmSSE 17.5 19.4----30.28-0.01 53.8 53.6 49.3---
2024-04-17 01:50 pmSSE 15.5 21.4 6.2 65.4SSE30.28- 53.8 53.6 49.1---
2024-04-17 01:40 pmSSE 17.5 21.4 6.2-5.4SSE30.29- 53.8 53.6 49.1---
2024-04-17 01:30 pmSSE 15.5 19.4----30.29- 54.0 53.6 49.3---
2024-04-17 01:20 pmSSE 17.5 21.4 6.6 65.6 S30.29- 53.8 53.6 48.9---
2024-04-17 01:10 pmSSE 17.5 21.4----30.29- 53.8 53.6 48.9---
2024-04-17 01:00 pmSSE 15.5 19.4----30.29+0.00 53.8 53.6 49.3---
2024-04-17 12:50 pmSSE 17.5 21.4 6.6 65.6 SE30.30- 53.8 53.6 49.1---
2024-04-17 12:40 pmSSE 15.5 19.4----30.30- 53.8 53.6 49.3---
2024-04-17 12:30 pmSSE 15.5 19.4----30.30- 53.8 53.6 49.3---
2024-04-17 12:20 pmSSE 17.5 21.4 6.2 65.6SSE30.30- 53.6 53.6 49.1---
2024-04-17 12:10 pmSSE 17.5 21.4 6.2-5.6SSE30.30- 53.6 53.6 49.1---
2024-04-17 12:00 pm SE 17.5 21.4----30.29-0.01 53.6 53.6 49.1---
2024-04-17 11:50 amSSE 17.5 21.4 6.2 65.4SSE30.29- 53.6 53.6 48.9---
2024-04-17 11:40 amSSE 17.5 23.3 6.2-5.4SSE30.30- 53.6 53.6 48.9---
2024-04-17 11:30 am SE 17.5 21.4----30.29- 53.6 53.6 49.1---
2024-04-17 11:20 amSSE 17.5 21.4 5.9 65.1SSE30.30- 53.6 53.6 48.9---
2024-04-17 11:10 am SE 17.5 23.3 5.9-5.1SSE30.30- 53.6 53.6 48.9---
2024-04-17 11:00 amSSE 17.5 21.4----30.30+0.00 53.6 53.6 48.9---
2024-04-17 10:50 amSSE 17.5 23.3 6.2 65.5SSE30.30- 53.6 53.6 48.7---
2024-04-17 10:40 amSSE 17.5 21.4----30.30- 53.6 53.6 48.7---
2024-04-17 10:30 amSSE 17.5 21.4----30.30- 53.6 53.6 48.9---
2024-04-17 10:20 amSSE 17.5 21.4 5.9 65.5 S30.30- 53.4 53.6 48.7---
2024-04-17 10:10 amSSE 17.5 21.4 5.9-5.5 S30.30- 53.4 53.6 48.9---
2024-04-17 10:00 amSSE 17.5 21.4----30.30+0.00 53.6 53.6 48.7---
2024-04-17 09:50 amSSE 17.5 21.4 5.9 55.4SSE30.29- 53.4 53.6 48.6---
2024-04-17 09:40 amSSE 15.5 19.4----30.29- 53.6 53.6 49.3---
2024-04-17 09:30 amSSE 15.5 19.4----30.30- 53.4 53.6 48.7---
2024-04-17 09:20 amSSE 15.5 19.4 5.6 65.4SSE30.30- 53.4 53.6 48.7---
2024-04-17 09:10 amSSE 15.5 21.4 5.6-5.4SSE30.31- 53.6 53.6 48.9---
2024-04-17 09:00 amSSE 17.5 19.4----30.30+0.00 53.6 53.6 48.7---
2024-04-17 08:50 amSSE 17.5 21.4 5.9 55.4SSE30.30- 53.4 53.6 48.4---
2024-04-17 08:40 amSSE 17.5 19.4----30.30- 53.6 53.6 48.4---
2024-04-17 08:30 amSSE 17.5 21.4----30.30- 53.6 53.6 48.6---
2024-04-17 08:20 amSSE 17.5 21.4 5.2 65.5 S30.29- 53.6 53.6 48.7---
2024-04-17 08:10 amSSE 15.5 21.4 5.2-5.5 S30.30- 53.6 53.6 48.7---
2024-04-17 08:00 amSSE 17.5 21.4----30.29-0.03 53.4 53.6 48.6---
2024-04-17 07:50 amSSE 15.5 19.4 5.2 65.3 S30.29- 53.4 53.6 48.9---
2024-04-17 07:40 am SE 15.5 19.4 5.2-5.3 S30.29- 53.6 53.6 49.3---
2024-04-17 07:30 am SE 15.5 19.4----30.29- 53.6 53.6 48.6---
2024-04-17 07:20 amSSE 15.5 19.4 5.2 115.4 SW30.29- 53.4 53.6 48.7---
2024-04-17 07:10 am SE 15.5 17.5 5.2-5.4 SW30.29- 53.6 53.6 49.5---
2024-04-17 07:00 am SE 15.5 19.4----30.30-0.03 53.4 53.6 49.1---
2024-04-17 06:50 am SE 13.6 17.5 4.9 65.4 S30.30- 53.4 53.6 49.3---
2024-04-17 06:40 am SE 15.5 19.4----30.30- 53.4 53.6 49.1---
2024-04-17 06:30 am SE 15.5 19.4----30.30- 53.4 53.6 49.1---
2024-04-17 06:20 am SE 15.5 17.5 4.9 95.4WSW30.30- 53.4 53.6 49.1---
2024-04-17 06:10 am SE 15.5 17.5 4.9-5.4WSW30.30- 53.6 53.6 49.1---
2024-04-17 06:00 amSSE 15.5 17.5----30.31-0.05 53.8 53.6 48.7---
2024-04-17 05:50 amSSE 15.5 17.5 4.9 55.3 S30.31- 53.8 53.6 47.3---
2024-04-17 05:40 amSSE 15.5 19.4 4.9-5.3 S30.31- 53.6 53.6 47.5---
2024-04-17 05:30 amSSE 15.5 17.5----30.31- 53.4 53.6 48.4---
2024-04-17 05:20 amSSE 13.6 15.5 4.6 95.2WSW30.31- 53.4 53.6 49.3---
2024-04-17 05:10 amSSE 13.6 15.5 4.6-5.2WSW30.32- 53.2 53.6 48.7---
2024-04-17 05:00 amSSE 13.6 17.5----30.32-0.03 53.2 53.6 48.6---
2024-04-17 04:50 amSSE 13.6 17.5 5.2 195.5 S30.32- 53.1 53.6 48.2---
2024-04-17 04:40 amSSE 15.5 19.4----30.33- 53.4 53.6 48.9---
2024-04-17 04:30 amSSE 13.6 17.5----30.33- 53.6 53.6 48.4---
2024-04-17 04:20 amSSE 13.6 15.5 4.9 55.4SSE30.33- 53.6 53.6 48.0---
2024-04-17 04:10 amSSE 13.6 15.5 4.9-5.4SSE30.33- 53.6 53.6 47.5---
2024-04-17 04:00 amSSE 13.6 17.5----30.33-0.04 53.6 53.6 47.1---
2024-04-17 03:50 amSSE 13.6 17.5 4.9 95.5WSW30.33- 53.6 53.6 47.7---
2024-04-17 03:40 amSSE 13.6 17.5 4.9-5.5WSW30.33- 53.4 53.6 47.5---
2024-04-17 03:30 amSSE 13.6 17.5----30.34- 53.4 53.6 47.7---
2024-04-17 03:20 amSSE 13.6 17.5 4.9 95.4WSW30.34- 53.4 53.6 47.5---
2024-04-17 03:10 amSSE 15.5 19.4 4.9-5.4WSW30.35- 53.4 53.6 47.1---
2024-04-17 03:00 amSSE 15.5 19.4----30.35-0.01 53.4 53.6 47.3---
2024-04-17 02:50 amSSE 13.6 17.5 5.2 105.6WSW30.36- 53.1 53.6 47.7---
2024-04-17 02:40 am S 13.6 15.5----30.36- 52.9 53.6 47.8---
2024-04-17 02:30 amSSE 13.6 19.4----30.36- 53.1 53.6 47.5---
2024-04-17 02:20 amSSE 11.7 15.5 4.9 105.6 W30.36- 53.1 53.6 47.3---
2024-04-17 02:10 amSSE 13.6 15.5 4.9-5.6 W30.36- 53.1 53.6 47.1---
2024-04-17 02:00 amSSE 13.6 17.5----30.36-0.02 53.1 53.6 46.9---
2024-04-17 01:50 amSSE 15.5 19.4 4.9 55.5SSE30.36- 53.1 53.6 46.6---
2024-04-17 01:40 amSSE 13.6 19.4----30.36- 53.2 53.6 46.8---
2024-04-17 01:30 amSSE 13.6 17.5----30.36- 53.1 53.6 46.4---
2024-04-17 01:20 amSSE 13.6 17.5 4.6 105.2 W30.36- 52.9 53.6 46.6---
2024-04-17 01:10 amSSE 13.6 17.5----30.37- 53.2 53.6 46.4---
2024-04-17 01:00 amSSE 13.6 17.5----30.37+0.00 53.2 53.6 46.0---
2024-04-17 12:50 amSSE 13.6 17.5 4.6 105.4 W30.36- 53.4 53.6 46.4---
2024-04-17 12:40 amSSE 13.6 15.5----30.37- 53.2 53.6 45.9---
2024-04-17 12:30 amSSE 13.6 17.5----30.36- 53.4 53.6 46.6---
2024-04-17 12:20 amSSE 11.7 15.5 5.2 105.4 W30.36- 53.4 53.6 45.7---
2024-04-17 12:10 amSSE 13.6 17.5 5.2-5.4 W30.36- 53.4 53.6 45.7---
2024-04-17 12:00 amSSE 15.5 19.4----30.36+0.01 53.2 53.6 45.7---
2024-04-16 11:50 pm SE 15.5 19.4 4.9 105.6 W30.36- 53.1 53.6 46.6---
2024-04-16 11:40 pmSSE 15.5 17.5 4.9-5.6 W30.36- 53.2 53.6 47.8---
2024-04-16 11:30 pm SE 13.6 17.5----30.36- 53.4 53.6 48.0---
2024-04-16 11:20 pm SE 13.6 17.5 4.6 105.4WSW30.36- 53.6 53.6 45.7---
2024-04-16 11:10 pmSSE 13.6 17.5 4.6-5.4WSW30.37- 53.6 53.6 45.3---
2024-04-16 11:00 pmSSE 13.6 17.5----30.37+0.02 53.6 53.6 45.1---
2024-04-16 10:50 pmSSE 13.6 15.5 4.6 55.2SSE30.37- 53.6 53.6 45.5---
2024-04-16 10:40 pmSSE 13.6 17.5----30.37- 53.4 53.6 45.9---
2024-04-16 10:30 pmSSE 13.6 19.4----30.37- 53.4 53.6 47.5---
2024-04-16 10:20 pm SE 15.5 17.5 4.9 55.2 S30.36- 53.4 53.6 47.3---
2024-04-16 10:10 pm SE 15.5 17.5 4.9-5.2 S30.36- 53.4 53.6 46.8---
2024-04-16 10:00 pm SE 13.6 17.5----30.36+0.00 53.2 53.6 47.7---
2024-04-16 09:50 pmSSE 15.5 17.5 4.9 55.2 S30.36- 53.2 53.6 48.2---
2024-04-16 09:40 pm SE 13.6 17.5----30.36- 53.2 53.6 48.7---
2024-04-16 09:30 pmSSE 13.6 19.4----30.35- 53.2 53.6 48.6---
2024-04-16 09:20 pm SE 15.5 17.5 4.6 105.4WSW30.35- 53.2 53.8 48.4---
2024-04-16 09:10 pmSSE 13.6 17.5 4.6-5.4WSW30.35- 53.2 53.6 48.0---
2024-04-16 09:00 pmSSE 13.6 17.5----30.35-0.01 53.2 53.6 48.2---
2024-04-16 08:50 pmSSE 13.6 17.5 4.6 55.3SSE30.35- 53.2 53.6 48.4---
2024-04-16 08:40 pmSSE 13.6 15.5----30.35- 53.2 53.6 48.2---
2024-04-16 08:30 pm SE 13.6 17.5----30.35- 53.2 53.6 48.0---
2024-04-16 08:20 pmSSE 13.6 17.5 4.6 95.4WSW30.35- 53.2 53.8 48.2---
2024-04-16 08:10 pmSSE 13.6 17.5 4.6-5.4WSW30.36- 53.2 53.6 47.8---
2024-04-16 08:00 pmSSE 13.6 17.5----30.36-0.03 53.2 53.8 47.7---
2024-04-16 07:50 pmSSE 13.6 15.5 4.6 55.2SSE30.36- 53.4 53.8 47.8---
2024-04-16 07:40 pmSSE 13.6 17.5----30.35- 53.2 53.8 47.3---
2024-04-16 07:30 pmSSE 13.6 17.5----30.36- 53.4 53.8 47.8---
2024-04-16 07:20 pmSSE 13.6 17.5 4.3 175.2SSE30.36- 53.2 53.8 47.7---
2024-04-16 07:10 pmSSE 13.6 17.5 4.3-5.2SSE30.36- 53.2 53.8 47.7---
2024-04-16 07:00 pmSSE 13.6 17.5----30.36-0.03 53.2 53.8 47.7---
2024-04-16 06:50 pmSSE 13.6 17.5 4.6 125.4SSW30.36- 53.2 53.8 47.5---
2024-04-16 06:40 pmSSE 13.6 17.5----30.36- 53.2 53.6 47.5---
2024-04-16 06:30 pmSSE 13.6 17.5----30.36- 52.9 53.8 47.3---
2024-04-16 06:20 pmSSE 13.6 17.5 4.3 105.4 W30.36- 52.7 53.8 48.0---
2024-04-16 06:10 pmSSE 13.6 17.5 4.3-5.4 W30.36- 52.5 53.8 48.2---
2024-04-16 06:00 pmSSE 13.6 15.5----30.37-0.04 52.7 53.8 47.8---
2024-04-16 05:50 pmSSE 11.7 15.5 4.3 115.3 W30.36- 52.7 53.8 48.4---
2024-04-16 05:40 pmSSE 9.7 13.6 4.3-5.3 W30.37- 52.5 53.8 48.4---
2024-04-16 05:30 pmSSE 11.7 13.6----30.37- 52.3 53.8 48.4---
2024-04-16 05:20 pmSSE 11.7 13.6 4.6 175.4SSW30.37- 52.0 53.8 48.4---
2024-04-16 05:10 pmSSE 11.7 15.5 4.6-5.4SSW30.37- 51.4 53.6 48.7---
2024-04-16 05:00 pmSSE 15.5 19.4----30.38-0.03 52.3 53.6 48.6---
2024-04-16 04:50 pmSSE 15.5 17.5 4.3 175.3 S30.37- 52.7 53.8 48.2---
2024-04-16 04:40 pmSSE 13.6 17.5----30.38- 52.7 53.6 48.0---
2024-04-16 04:10 pmSSE 13.6 17.5 4.6-5.2 S30.39- 52.9 53.6 47.8---
2024-04-16 04:00 pmSSE 13.6 17.5----30.39-0.03 53.1 53.6 48.7---
2024-04-16 03:50 pm SE 11.7 15.5 4.6 115.6WSW30.38- 52.9 53.6 48.4---
2024-04-16 03:40 pm SE 11.7 13.6 4.6-5.6WSW30.39- 52.5 53.6 47.5---
2024-04-16 03:30 pmSSE 13.6 15.5----30.39- 52.5 53.6 47.7---
2024-04-16 03:20 pmSSE 13.6 17.5 4.3 105.3 W30.39- 53.1 53.6 47.7---
2024-04-16 03:10 pm S 11.7 17.5----30.40- 53.1 53.6 46.9---
2024-04-16 03:00 pm S 11.7 15.5----30.40-0.02 53.1 53.6 47.1---
2024-04-16 02:50 pmSSE 11.7 15.5 3.9 105.1WSW30.40- 52.7 53.6 47.1---

Detailed Wave Summary
for 46006 as of (2:40 pm PDT)
2140 GMT on 04/17/2024:

These wave data are displayed in rounded times.

     

Click on the graph icon in the table below to see a time series plot of the last five days of that observation.

5-day plot - Significant Wave Height Significant Wave Height (WVHT): 6.6 ft
5-day plot - Swell Height Swell Height (SwH): 3.3 ft
5-day plot - Swell Period Swell Period (SwP): 17.4 sec
5-day plot - Swell Direction Swell Direction (SwD): W
5-day plot - Wind Wave Height Wind Wave Height (WWH): 5.6 ft
5-day plot - Wind Wave Period Wind Wave Period (WWP): 6.2 sec
5-day plot - Wind Wave Direction Wind Wave Direction (WWD):SSE
5-day plot - Wave Steepness Wave Steepness (STEEPNESS):VERY_STEEP
5-day plot - Average Wave Period Average Wave Period (APD): 5.6 sec
Previous observations
TIME
(PDT)
5-day plot - Wave Height
WVHT
ft
5-day plot - Swell Height
SwH
ft
5-day plot - Swell Period
SwP
sec
5-day plot - Swell Direction
SwD
 
5-day plot - Wind Wave Height
WWH
ft
5-day plot - Wind Wave Period
WWP
sec
5-day plot - Wind Wave Direction
WWD
 
5-day plot - Wave Steepness
STEEPNESS
 
5-day plot - Average Wave Period
APD
sec
2024-04-17 02:10 pm 6.6 3.0 17.4SSE 5.9 6.2 SVERY_STEEP 5.5
2024-04-17 01:40 pm 6.2 3.0 19.0SSE 5.6 5.9 SSEVERY_STEEP 5.4
2024-04-17 01:10 pm 6.6 3.3 19.0 S 5.9 5.9 SVERY_STEEP 5.6
2024-04-17 12:40 pm 6.6 3.3 17.4 S 5.6 5.6 SEVERY_STEEP 5.6
2024-04-17 12:10 pm 6.2 3.3 19.0SSE 5.2 5.6 SSEVERY_STEEP 5.6
2024-04-17 11:40 am 6.2 3.0 17.4SSE 5.6 5.6 SSEVERY_STEEP 5.4
2024-04-17 11:10 am 5.9 2.0 9.1WSW 5.6 5.6 SSEVERY_STEEP 5.1
2024-04-17 10:40 am 6.2 3.3 19.0 S 5.2 5.6 SSEVERY_STEEP 5.5
2024-04-17 10:10 am 5.9 3.3 17.4SSE 5.2 5.6 SVERY_STEEP 5.5
2024-04-17 09:40 am 5.9 3.3 19.0 S 4.9 5.3 SSEVERY_STEEP 5.4
2024-04-17 09:10 am 5.6 3.3 10.0WSW 4.6 5.6 SSEVERY_STEEP 5.4
2024-04-17 08:40 am 5.9 3.0 19.0 SE 4.9 5.3 SSEVERY_STEEP 5.4
2024-04-17 08:10 am 5.2 3.3 17.4SSE 4.3 5.6 SVERY_STEEP 5.5
2024-04-17 07:40 am 5.2 3.0 9.1 SW 4.3 5.6 SVERY_STEEP 5.3
2024-04-17 07:10 am 5.2 3.3 10.8 SW 4.3 5.6 SSE AVERAGE 5.4
2024-04-17 06:40 am 4.9 3.3 9.1WSW 3.9 5.6 SVERY_STEEP 5.4
2024-04-17 06:10 am 4.9 3.3 9.1WSW 3.9 5.9 S AVERAGE 5.4
2024-04-17 05:40 am 4.9 3.0 9.1WSW 3.9 5.3 SVERY_STEEP 5.3
2024-04-17 05:10 am 4.6 3.0 9.1WSW 3.6 5.3 SSE AVERAGE 5.2
2024-04-17 04:40 am 5.2 3.3 19.0 S 3.9 5.6 S AVERAGE 5.5
2024-04-17 04:10 am 4.9 3.3 10.0WSW 3.6 5.0 SSEVERY_STEEP 5.4
2024-04-17 03:40 am 4.9 3.3 9.1WSW 3.6 5.6 SSE AVERAGE 5.5
2024-04-17 03:10 am 4.9 3.0 9.1WSW 3.9 5.3 S AVERAGE 5.4
2024-04-17 02:40 am 5.2 3.6 10.0WSW 3.6 5.0 SE SWELL 5.6
2024-04-17 02:10 am 4.9 3.6 10.0 W 3.6 5.3 SSE SWELL 5.6
2024-04-17 01:40 am 4.9 3.3 9.1WSW 3.6 5.0 SSEVERY_STEEP 5.5
2024-04-17 01:10 am 4.6 3.0 10.0 W 3.6 4.8 SSE AVERAGE 5.2
2024-04-17 12:40 am 4.6 3.3 10.0 W 3.3 5.0 S SWELL 5.4
2024-04-17 12:10 am 5.2 3.3 10.0 W 3.9 5.0 SSE AVERAGE 5.4
2024-04-16 11:40 pm 4.9 3.3 10.0 W 3.9 5.3 S AVERAGE 5.6
2024-04-16 11:10 pm 4.6 3.0 10.0WSW 3.6 5.0 S AVERAGE 5.4
2024-04-16 10:40 pm 4.6 2.6 10.0WSW 3.6 4.8 SSEVERY_STEEP 5.2
2024-04-16 10:10 pm 4.9 3.0 9.1 W 3.9 5.0 SVERY_STEEP 5.2
2024-04-16 09:40 pm 4.9 3.0 9.1WNW 3.6 5.0 SVERY_STEEP 5.2
2024-04-16 09:10 pm 4.6 3.3 10.0WSW 3.6 4.8 SSE AVERAGE 5.4
2024-04-16 08:40 pm 4.6 3.3 9.1 SW 3.3 4.5 SSEVERY_STEEP 5.3
2024-04-16 08:10 pm 4.6 3.3 9.1WSW 3.3 4.8 SSE SWELL 5.4
2024-04-16 07:40 pm 4.6 3.0 12.1 S 3.6 4.5 SSEVERY_STEEP 5.2
2024-04-16 07:10 pm 4.3 3.0 17.4SSE 3.3 4.8 SSE AVERAGE 5.2
2024-04-16 06:40 pm 4.6 3.0 12.1SSW 3.3 4.8 SSE AVERAGE 5.4
2024-04-16 06:10 pm 4.3 2.6 10.0 W 3.0 4.5 SSE AVERAGE 5.4
2024-04-16 05:40 pm 4.3 3.3 10.8 W 2.6 5.0 S SWELL 5.3
2024-04-16 05:10 pm 4.6 3.3 17.4SSW 3.0 4.8 SSE SWELL 5.4
2024-04-16 04:40 pm 4.3 3.0 17.4 S 3.3 4.5 S AVERAGE 5.3
2024-04-16 04:10 pm 4.6 3.0 12.9 S 3.6 4.8 SVERY_STEEP 5.2
2024-04-16 03:40 pm 4.6 3.6 10.8WSW 3.0 4.8 S SWELL 5.6
2024-04-16 03:10 pm 4.3 3.0 10.0 W 3.0 4.5 S SWELL 5.3

Plot of wave energy versus frequency (and period)